Regional Weather Roundup
Issued by NWS State College, PA

Home | Current Version | Previous Version | Text Only | Print | Product List | Glossary Off
Versions: 1 2 3 4 5 6 7 8 9 10 11 12 13 14 15 16 17 18 19 20 21 22 23 24 25 26 27 28 29 30 31 32 33 34 35 36 37 38 39 40 41 42 43 44 45 46 47 48 49 50

000
ASUS41 KCTP 021503
RWRCTP

REGIONAL WEATHER ROUNDUP
NATIONAL WEATHER SERVICE STATE COLLEGE PA
1100 AM EDT TUE JUN 02 2015

Note: "fair" indicates few or no clouds below 12,000 feet with no
significant weather and/or obstructions to visibility.

* = STATION THAT DOES NOT REPORT PRECIPITATION /E.G. RAIN...SNOW...ETC/
    THUNDER OR FOG.

PAZ002>004-007>009-013>016-020>023-029>032-021600-
WESTERN PENNSYLVANIA

CITY           SKY/WX    TMP DP  RH WIND       PRES   REMARKS
ERIE           MOSUNNY   57  46  66 NE16      30.20S
MEADVILLE      CLOUDY    55  48  77 NE12      30.18S
FRANKLIN*      CLOUDY    55  46  71 N10       30.18S
NEW CASTLE     CLOUDY    56  51  83 NE9       30.18S
BEAVER COUNTY  CLOUDY    55  50  82 N6        30.16R
BUTLER*        CLOUDY    55  48  76 NE6       30.17S
PITTSBURGH INT CLOUDY    59  50  72 N10       30.14R
PITTSBURGH     CLOUDY    56  48  74 CALM      30.13S
INDIANA*       CLOUDY    57  52  82 E5        30.18R
LATROBE        NOT AVBL
WASHINGTON CO* CLOUDY    57  52  82 NE7       30.16R
$$

PAZ004>006-010>012-017>019-024>028-033>037-041-042-045-046-049>053-021600-
CENTRAL PENNSYLVANIA

CITY           SKY/WX    TMP DP  RH WIND       PRES   REMARKS
BRADFORD       CLOUDY    52  47  83 NE7       30.18R
DUBOIS         CLOUDY    57  50  77 NE9       30.15R
CLEARFIELD     CLOUDY    56  50  80 E7        30.16R
JOHNSTOWN      CLOUDY    54  52  93 E3        30.13R
ALTOONA        LGT RAIN  55  53  93 N8        30.14R
STATE COLLEGE  CLOUDY    55  52  88 NE8       30.15R
WILLIAMSPORT   LGT RAIN  59  52  77 NE7       30.13R
SELINSGROVE    LGT RAIN  57  54  89 E5        30.15S
FT INDIANTOWN  LGT RAIN  54  54 100 N5        30.14R
CAPITAL CITY   LGT RAIN  55  52  89 E7        30.14R FOG
HARRISBURG     LGT RAIN  55  52  89 NE6       30.14R
YORK           LGT RAIN  55  53  93 NE7       30.13R FOG
$$

PAZ038>040-043-044-047-048-054-055-060>062-067>071-021600-
EASTERN PENNSYLVANIA

CITY           SKY/WX    TMP DP  RH WIND       PRES   REMARKS
SCRANTON       LGT RAIN  55  50  83 NE3       30.14S
MOUNT POCONO   LGT RAIN  50  46  86 NE6       30.15S
ALLENTOWN      LGT RAIN  53  50  89 NE7       30.15R FOG
QUAKERTOWN*    CLOUDY    52  50  93 NE7       30.14S
READING        LGT RAIN  52  50  93 N6        30.13R
LANCASTER      LGT RAIN  54  52  93 NE8       30.13S
COATESVILLE    RAIN      52  52 100 NE7       30.13R
POTTSTOWN      LGT RAIN  53  52  96 NE9       30.14S FOG
BLUE BELL      CLOUDY    54  52  94 NE6       30.13S
DOYLESTOWN     CLOUDY    51  50  96 NE6       30.13S
WILLOW GROVE   NOT AVBL
NORTH PHILA    CLOUDY    55  49  80 NE10      30.15R
PHILADELPHIA   CLOUDY    55  51  86 NE12      30.12S
$$


USA.gov is the U.S. government's official web portal to all federal, state and local government web resources and services.